This demonstration page uses our WeatherBlox Daily Observations layout. Learn more.

Left ArrowRight Arrow

39.12711, -84.51439

Hourly Observations for June 26, 2018

Temp ( °F °C ) Dew Point ( °F °C ) Humidity (%) Winds ( mph kmh ) Pressure ( in mb ) Visibility ( mi km ) Precip ( " mm )
12:53 am 00:53 Cloudy 70 21.1 67 19.4 90 90 NNE 5 7 30.10 1019 10 16 N/A
1:53 am 01:53 Cloudy 70 21.1 67 19.4 90 90 N N/A 30.09 1019 10 16 N/A
2:53 am 02:53 Mostly Cloudy 68 20 67 19.4 96 96 N N/A 30.08 1019 10 16 N/A
3:53 am 03:53 Mostly Cloudy 67 19.4 66 18.9 97 97 N N/A 30.07 1018 10 16 N/A
4:53 am 04:53 Clear 66 18.9 66 18.9 100 100 NNE 3 6 30.06 1018 10 16 N/A
5:53 am 05:53 Clear 66 18.9 66 18.9 100 100 N N/A 30.06 1018 10 16 N/A
6:53 am 06:53 Mostly Cloudy 67 19.4 67 19.4 100 100 N N/A 30.07 1018 10 16 N/A
7:34 am 07:34 Cloudy 69 20.6 67 19.4 93 93 N 3 6 30.06 1018 10 16 N/A
7:53 am 07:53 Cloudy 69 20.6 67 19.4 93 93 N N/A 30.07 1018 10 16 N/A
8:53 am 08:53 Cloudy 71 21.7 68 20 90 90 SE 6 9 30.06 1018 10 16 N/A
9:53 am 09:53 Mostly Cloudy 74 23.3 70 21.1 88 88 VRB 3 6 30.04 1017 8 13 N/A
9:56 am 09:56 Mostly Cloudy 74 23.3 70 21.1 88 88 SSE 5 7 30.03 1017 10 16 N/A
10:53 am 10:53 Cloudy 74 23.3 70 21.1 88 88 S 8 13 30.05 1018 8 13 N/A
11:53 am 11:53 Cloudy 75 23.9 71 21.7 88 88 SSW 6 9 30.07 1018 8 13 N/A
12:53 pm 12:53 Cloudy 77 25 73 22.8 88 88 SSW 5 7 30.05 1018 10 16 N/A
1:53 pm 13:53 Cloudy 78 25.6 74 23.3 87 87 N N/A 30.02 1017 10 16 N/A
2:13 pm 14:13 Cloudy 79 26.1 73 22.8 82 82 E 3 6 30.00 1016 10 16 N/A
2:51 pm 14:51 Cloudy with Thunderstorms 73 23 70 21 89 89 N 14 22 30.03 1017 10 16 N/A
2:53 pm 14:53 Cloudy with Thunderstorms 73 22.8 69 20.6 87 87 NNW 15 24 30.04 1017 10 16 N/A
2:58 pm 14:58 Cloudy with Thunderstorms 72 22.2 69 20.6 91 91 NNW 15 24 30.03 1017 4 6 0.02 0.51
3:20 pm 15:20 Cloudy with Thunderstorms 70 21.1 69 20.6 97 97 VRB 3 6 30.06 1018 2 3 0.41 10.41
3:39 pm 15:39 Cloudy with Strong Thunderstorms 69 20.6 69 20.6 100 100 W 20 31 30.09 1019 1 1 0.99 25.15
3:53 pm 15:53 Cloudy with Thunderstorms 69 20.6 69 20.6 100 100 WNW 10 17 30.07 1018 2 3 1.13 28.70
3:55 pm 15:55 Cloudy with Thunderstorms 69 20.6 69 20.6 100 100 NW 12 19 30.03 1017 3 5 0.01 0.25
4:53 pm 16:53 Mostly Cloudy with Thunderstorms 68 20 68 20 100 100 VRB 3 6 30.01 1016 4 6 0.09 2.29
5:07 pm 17:07 Mostly Cloudy with Light Rain 69 20.6 69 20.6 100 100 ENE 6 9 29.97 1015 7 11 0.02 0.51
5:53 pm 17:53 Sunny 70 21.1 69 20.6 97 97 S 5 7 29.96 1014 10 16 0.03 0.76
6:53 pm 18:53 Sunny 70 21.1 69 20.6 97 97 S 8 13 29.94 1014 10 16 N/A
7:53 pm 19:53 Cloudy 70 21.1 69 20.6 97 97 S 9 15 29.94 1014 10 16 N/A
8:36 pm 20:36 Mostly Sunny 70 21.1 69 20.6 97 97 SSW 5 7 29.94 1014 10 16 N/A
8:53 pm 20:53 Sunny 69 20.6 69 20.6 100 100 SSW 6 9 29.95 1014 10 16 N/A
9:53 pm 21:53 Clear 68 20 68 20 100 100 SSW 3 6 29.95 1014 10 16 N/A
10:53 pm 22:53 Clear 68 20 68 20 100 100 N N/A 29.94 1014 10 16 N/A
11:53 pm 23:53 Partly Cloudy 69 20.6 68 20 96 96 SSW 8 13 29.93 1014 10 16 N/A

Powered by AerisWeather